Content
SEND FEEDBACK

Daily
Averages
Monthly
Summary
Malaysia

KUALA LUMPUR, MALAYSIA


Home > Asia > Malaysia
Elevation: 72 feet     Latitude: 03 07N     Longitude: 101 33E

WEATHER
 
SELECT A DAY
Number of Records: 119,881;   Date Range: 7/19/98 - 7/28/14
 
SHARE

PRINT THIS DATA

[ ← Previous Day ]
WEATHER ALMANAC - APRIL 23, 2013
[ Next Day → ]
[ °C ]   °F
Weather ElementAverageHighLow
Temperature80.6 °F91.4 °F (12:00 pm)77 °F (4:00 am)
Dewpoint77.6 °F80.6 °F (10:00 am)75.2 °F (2:00 pm)
Humidity91.1 %100 % (4:00 am)71 % (12:00 pm)
Barometer29.81 in29.89 in (10:00 pm)29.77 in (3:00 am)
Wind Speed2.4 mph11.5 mph (2:00 pm)
Weather ElementAverage
Visibility4.3 mi
Wind DirectionESE (96.1 °)

Weather ElementTotal
Precipitation---
Cooling Degree Days19.2 (Base 65)
Growing Degree Days34.2 (Base 50)
Averaged from 23 records on April 23, 2013
WEATHER CONDITIONS BREAKOUT
WIND DIRECTION BREAKOUT
WEATHER BY HOUR - APRIL 23, 2013
[ °C ]   °F
Local TimeTemperatureDewpointHumidityBarometerVisibilityWind DirectionWind SpeedGust SpeedPrecipitationEventsConditions
1:00 AM78.8 °F77.0 °F94 %29.83 in4.3 miCalmMostly Cloudy
2:00 AM78.8 °F77.0 °F94 %29.80 in4.3 miCalmMostly Cloudy
3:00 AM78.8 °F77.0 °F94 %29.77 in4.3 miCalmMostly Cloudy
4:00 AM77.0 °F77.0 °F100 %29.77 in4.3 miCalmMostly Cloudy
5:00 AM78.8 °F77.0 °F94 %29.77 in4.3 miCalmMostly Cloudy
6:00 AM78.8 °F77.0 °F94 %29.77 in3.7 miCalmMostly Cloudy
7:00 AM78.8 °F77.0 °F94 %29.77 in2.5 miCalmMostly Cloudy
8:00 AM78.8 °F77.0 °F94 %29.80 in2.5 miCalmHaze
9:00 AM82.4 °F78.8 °F89 %29.83 in5.6 miNNE (20°)1.2 mphMostly Cloudy
10:00 AM86.0 °F80.6 °F84 %29.83 in6.2 miNNE (20°)1.2 mphMostly Cloudy
11:00 AM87.8 °F80.6 °F79 %29.86 in6.2 miNW (320°)2.3 mphMostly Cloudy
12:00 PM91.4 °F80.6 °F71 %29.83 in6.2 miNE (40°)2.3 mphMostly Cloudy
1:00 PM89.6 °F80.6 °F75 %29.80 in4.3 miNNE (30°)6.9 mphThunderstormThunderstorm
2:00 PM80.6 °F75.2 °F84 %29.80 in3.7 miWest (280°)11.5 mphThunderstormThunderstorm
3:00 PM82.4 °F77.0 °F84 %29.80 in5.6 miNorth (350°)6.9 mphThunderstormThunderstorm
4:00 PM80.6 °F77.0 °F89 %29.77 in4.3 miNNE (30°)3.5 mphThunderstormThunderstorm
5:00 PM78.8 °F77.0 °F94 %29.77 in3.7 miNNE (30°)3.5 mphRainLight Rain
6:00 PM78.8 °F77.0 °F94 %29.77 in3.7 miNNW (340°)3.5 mphRainLight Rain
7:00 PM77.0 °F77.0 °F100 %29.80 in3.7 miNorth (360°)3.5 mphRainLight Rain
8:00 PM77.0 °F77.0 °F100 %29.80 in4.3 miNNE (20°)2.3 mphRainLight Rain
9:00 PM77.0 °F77.0 °F100 %29.86 in3.7 miCalmRainLight Rain
10:00 PM77.0 °F77.0 °F100 %29.89 in3.7 miNorth (10°)1.2 mphMostly Cloudy
11:00 PM78.8 °F77.0 °F94 %29.89 in3.7 miNorth (360°)5.8 mphMostly Cloudy
Hourly data recorded from WMSA, located miles away from Kuala Lumpur, Malaysia







STORIES FROM OUR PARTNERS